| time (UTC) | temp C | wind direction | speed KPH | gust KPH | rain 1hr cm | rain 24hr cm | rain mn cm | humidity % | barometer mb |
| 20260504130505 | 11 | 105 | 1.6 | 33.8 | 0.00 | 0.00 | 0.00 | 46 | 1012.7 |
| 20260504110352 | 12 | 113 | 25.7 | 37.0 | 0.00 | 0.00 | 0.00 | 49 | 1011.8 |
| 20260504100309 | 8 | 102 | 8.0 | 8.0 | 0.00 | 0.00 | 0.00 | 67 | 1010.9 |
| 20260504081703 | 10 | 113 | 3.2 | 4.8 | 0.00 | 0.00 | 0.00 | 64 | 1010.9 |
| 20260504081159 | 10 | 145 | 0.0 | 3.2 | 0.00 | 0.00 | 0.00 | 63 | 1011.1 |
| 20260504080655 | 11 | 23 | 0.0 | 3.2 | 0.00 | 0.00 | 0.00 | 62 | 1011.1 |
| 20260504080152 | 11 | 23 | 0.0 | 4.8 | 0.00 | 0.00 | 0.00 | 62 | 1010.9 |
| 20260504070120 | 9 | 106 | 6.4 | 8.0 | 0.00 | 0.00 | 0.00 | 67 | 1010.8 |
| 20260504050508 | 13 | 106 | 8.0 | 12.9 | 0.00 | 0.00 | 0.00 | 52 | 1010.7 |
| 20260504050005 | 14 | 107 | 6.4 | 8.0 | 0.00 | 0.00 | 0.00 | 50 | 1010.7 |
| 20260504045501 | 14 | 118 | 8.0 | 9.7 | 0.00 | 0.00 | 0.00 | 51 | 1010.5 |
| 20260504044957 | 14 | 99 | 3.2 | 11.3 | 0.00 | 0.00 | 0.00 | 50 | 1010.6 |
| 20260504044455 | 13 | 106 | 4.8 | 9.7 | 0.00 | 0.00 | 0.00 | 54 | 1010.4 |
| 20260504043952 | 15 | 121 | 8.0 | 9.7 | 0.00 | 0.00 | 0.00 | 49 | 1010.6 |
| 20260504043449 | 14 | 122 | 16.1 | 16.1 | 0.00 | 0.00 | 0.00 | 50 | 1010.6 |
| 20260504042946 | 14 | 105 | 9.7 | 12.9 | 0.00 | 0.00 | 0.00 | 52 | 1010.5 |
| 20260504042443 | 14 | 106 | 6.4 | 11.3 | 0.00 | 0.00 | 0.00 | 51 | 1010.4 |
| 20260504041940 | 14 | 126 | 4.8 | 11.3 | 0.00 | 0.00 | 0.00 | 51 | 1010.5 |
| 20260504041436 | 15 | 86 | 8.0 | 11.3 | 0.00 | 0.00 | 0.00 | 49 | 1010.3 |
| 20260504040932 | 15 | 69 | 8.0 | 12.9 | 0.00 | 0.00 | 0.00 | 49 | 1010.4 |
| 20260504040430 | 16 | 82 | 8.0 | 12.9 | 0.00 | 0.00 | 0.00 | 46 | 1010.4 |
| 20260504035925 | 16 | 78 | 4.8 | 8.0 | 0.00 | 0.00 | 0.00 | 46 | 1010.3 |
| 20260504035423 | 15 | 113 | 6.4 | 8.0 | 0.00 | 0.00 | 0.00 | 48 | 1010.1 |
| 20260504034919 | 15 | 111 | 8.0 | 11.3 | 0.00 | 0.00 | 0.00 | 48 | 1010.0 |
| 20260504034417 | 15 | 78 | 4.8 | 9.7 | 0.00 | 0.00 | 0.00 | 48 | 1010.3 |
| 20260504033914 | 15 | 101 | 8.0 | 9.7 | 0.00 | 0.00 | 0.00 | 49 | 1010.0 |
| 20260504033411 | 15 | 112 | 4.8 | 9.7 | 0.00 | 0.00 | 0.00 | 48 | 1010.0 |
| 20260504032903 | 15 | 106 | 6.4 | 8.0 | 0.00 | 0.00 | 0.00 | 49 | 1009.9 |
| 20260504032400 | 16 | 112 | 4.8 | 8.0 | 0.00 | 0.00 | 0.00 | 47 | 1009.8 |
| 20260504031856 | 16 | 122 | 4.8 | 6.4 | 0.00 | 0.00 | 0.00 | 48 | 1009.8 |
| 20260504031353 | 16 | 105 | 4.8 | 6.4 | 0.00 | 0.00 | 0.00 | 46 | 1009.9 |
| 20260504030850 | 16 | 81 | 3.2 | 4.8 | 0.00 | 0.00 | 0.00 | 47 | 1009.8 |
| 20260504030347 | 17 | 106 | 4.8 | 6.4 | 0.00 | 0.00 | 0.00 | 47 | 1009.7 |
| 20260504025843 | 17 | 90 | 3.2 | 4.8 | 0.00 | 0.00 | 0.00 | 46 | 1009.7 |
| 20260504025340 | 17 | 100 | 4.8 | 6.4 | 0.00 | 0.00 | 0.00 | 44 | 1009.5 |
| 20260504024837 | 18 | 90 | 3.2 | 4.8 | 0.00 | 0.00 | 0.00 | 43 | 1009.6 |
| 20260504024333 | 18 | 111 | 4.8 | 4.8 | 0.00 | 0.00 | 0.00 | 42 | 1009.8 |
| 20260504023830 | 19 | 157 | 0.0 | 3.2 | 0.00 | 0.00 | 0.00 | 41 | 1009.6 |
| 20260504023327 | 20 | 111 | 0.0 | 3.2 | 0.00 | 0.00 | 0.00 | 38 | 1009.5 |
| 20260504022823 | 21 | 203 | 0.0 | 0.0 | 0.00 | 0.00 | 0.00 | 36 | 1009.5 |
| 20260504022320 | 22 | 195 | 0.0 | 3.2 | 0.00 | 0.00 | 0.00 | 35 | 1009.4 |
| 20260504021816 | 22 | 254 | 1.6 | 4.8 | 0.00 | 0.00 | 0.00 | 30 | 1009.3 |
| 20260504021314 | 22 | 270 | 3.2 | 6.4 | 0.00 | 0.00 | 0.00 | 31 | 1009.3 |
| 20260504020811 | 22 | 279 | 4.8 | 9.7 | 0.00 | 0.00 | 0.00 | 31 | 1009.5 |
| 20260504020308 | 22 | 305 | 3.2 | 9.7 | 0.00 | 0.00 | 0.00 | 31 | 1009.5 |
| 20260504015803 | 23 | 304 | 3.2 | 9.7 | 0.00 | 0.00 | 0.00 | 30 | 1009.5 |
| 20260504015300 | 23 | 270 | 4.8 | 11.3 | 0.00 | 0.00 | 0.00 | 30 | 1009.4 |
| 20260504014756 | 23 | 273 | 4.8 | 6.4 | 0.00 | 0.00 | 0.00 | 29 | 1009.3 |
| 20260504014252 | 23 | 289 | 4.8 | 6.4 | 0.00 | 0.00 | 0.00 | 29 | 1009.4 |
| 20260504013750 | 23 | 270 | 3.2 | 8.0 | 0.00 | 0.00 | 0.00 | 29 | 1009.4 |
| 20260504013248 | 24 | 308 | 4.8 | 6.4 | 0.00 | 0.00 | 0.00 | 28 | 1009.5 |
| 20260504012743 | 24 | 285 | 8.0 | 8.0 | 0.00 | 0.00 | 0.00 | 27 | 1009.4 |
| 20260504012242 | 24 | 248 | 0.0 | 4.8 | 0.00 | 0.00 | 0.00 | 28 | 1009.6 |
| 20260504011739 | 24 | 242 | 8.0 | 8.0 | 0.00 | 0.00 | 0.00 | 28 | 1009.4 |
| 20260504011235 | 24 | 286 | 8.0 | 8.0 | 0.00 | 0.00 | 0.00 | 26 | 1009.4 |
| 20260504010731 | 24 | 330 | 4.8 | 8.0 | 0.00 | 0.00 | 0.00 | 28 | 1009.5 |
| 20260504010227 | 24 | 310 | 6.4 | 8.0 | 0.00 | 0.00 | 0.00 | 28 | 1009.6 |
| 20260504005724 | 24 | 282 | 4.8 | 9.7 | 0.00 | 0.00 | 0.00 | 27 | 1009.7 |
| 20260504005221 | 25 | 217 | 3.2 | 4.8 | 0.00 | 0.00 | 0.00 | 26 | 1009.9 |
| 20260504004719 | 25 | 287 | 4.8 | 6.4 | 0.00 | 0.00 | 0.00 | 26 | 1009.7 |
| 20260504004215 | 24 | 329 | 6.4 | 8.0 | 0.00 | 0.00 | 0.00 | 27 | 1009.6 |
| 20260504003712 | 25 | 267 | 4.8 | 8.0 | 0.00 | 0.00 | 0.00 | 27 | 1009.9 |
| 20260504003209 | 24 | 90 | 0.0 | 4.8 | 0.00 | 0.00 | 0.00 | 25 | 1009.9 |
| 20260504002706 | 24 | 3 | 4.8 | 8.0 | 0.00 | 0.00 | 0.00 | 26 | 1010.0 |
| 20260504002203 | 25 | 324 | 3.2 | 4.8 | 0.00 | 0.00 | 0.00 | 25 | 1010.3 |
| 20260504001701 | 24 | 296 | 9.7 | 9.7 | 0.00 | 0.00 | 0.00 | 25 | 1009.9 |
| 20260504001157 | 24 | 288 | 4.8 | 9.7 | 0.00 | 0.00 | 0.00 | 28 | 1009.9 |
| 20260504000654 | 25 | 5 | 8.0 | 8.0 | 0.00 | 0.00 | 0.00 | 27 | 1010.3 |
| 20260504000151 | 25 | 28 | 4.8 | 12.9 | 0.00 | 0.00 | 0.00 | 25 | 1010.1 |
| 20260503235649 | 25 | 15 | 3.2 | 6.4 | 0.00 | 0.00 | 0.00 | 27 | 1010.1 |
| 20260503235145 | 25 | 231 | 4.8 | 4.8 | 0.00 | 0.00 | 0.00 | 27 | 1010.1 |
| 20260503234644 | 24 | 307 | 0.0 | 8.0 | 0.00 | 0.00 | 0.00 | 26 | 1010.5 |
| 20260503234142 | 25 | 270 | 0.0 | 4.8 | 0.00 | 0.00 | 0.00 | 25 | 1010.1 |
| 20260503233638 | 25 | 10 | 4.8 | 4.8 | 0.00 | 0.00 | 0.00 | 28 | 1010.4 |
| 20260503233134 | 24 | 273 | 6.4 | 16.1 | 0.00 | 0.00 | 0.00 | 26 | 1010.5 |
| 20260503232631 | 25 | 342 | 4.8 | 9.7 | 0.00 | 0.00 | 0.00 | 28 | 1010.5 |
| 20260503232128 | 24 | 325 | 4.8 | 6.4 | 0.00 | 0.00 | 0.00 | 27 | 1010.7 |
| 20260503231626 | 25 | 325 | 6.4 | 14.5 | 0.00 | 0.00 | 0.00 | 29 | 1010.6 |
| 20260503231122 | 24 | 282 | 6.4 | 16.1 | 0.00 | 0.00 | 0.00 | 29 | 1010.6 |
| 20260503230619 | 25 | 303 | 4.8 | 6.4 | 0.00 | 0.00 | 0.00 | 28 | 1010.7 |
| 20260503230117 | 24 | 75 | 3.2 | 8.0 | 0.00 | 0.00 | 0.00 | 28 | 1011.0 |
| 20260503225614 | 25 | 323 | 6.4 | 8.0 | 0.00 | 0.00 | 0.00 | 31 | 1010.9 |
| 20260503225113 | 25 | 0 | 1.6 | 3.2 | 0.00 | 0.00 | 0.00 | 30 | 1011.0 |
| 20260503224611 | 25 | 257 | 8.0 | 9.7 | 0.00 | 0.00 | 0.00 | 29 | 1011.1 |
| 20260503224109 | 24 | 263 | 6.4 | 8.0 | 0.00 | 0.00 | 0.00 | 30 | 1011.1 |
| 20260503223607 | 23 | 285 | 4.8 | 11.3 | 0.00 | 0.00 | 0.00 | 31 | 1011.0 |
| 20260503223102 | 23 | 58 | 4.8 | 11.3 | 0.00 | 0.00 | 0.00 | 30 | 1011.3 |
| 20260503222600 | 24 | 311 | 4.8 | 4.8 | 0.00 | 0.00 | 0.00 | 29 | 1011.3 |
| 20260503222058 | 23 | 257 | 0.0 | 11.3 | 0.00 | 0.00 | 0.00 | 29 | 1011.4 |
| 20260503221556 | 23 | 345 | 0.0 | 8.0 | 0.00 | 0.00 | 0.00 | 31 | 1011.3 |
| 20260503221053 | 23 | 250 | 3.2 | 8.0 | 0.00 | 0.00 | 0.00 | 32 | 1011.6 |
| 20260503220549 | 24 | 270 | 3.2 | 4.8 | 0.00 | 0.00 | 0.00 | 32 | 1011.7 |
| 20260503220046 | 23 | 18 | 3.2 | 8.0 | 0.00 | 0.00 | 0.00 | 32 | 1011.7 |
| 20260503215543 | 23 | 343 | 8.0 | 9.7 | 0.00 | 0.00 | 0.00 | 31 | 1011.9 |
| 20260503215040 | 23 | 274 | 4.8 | 8.0 | 0.00 | 0.00 | 0.00 | 31 | 1012.0 |
| 20260503214539 | 23 | 0 | 3.2 | 4.8 | 0.00 | 0.00 | 0.00 | 32 | 1012.1 |
| 20260503214035 | 23 | 20 | 6.4 | 6.4 | 0.00 | 0.00 | 0.00 | 32 | 1012.1 |
| 20260503213533 | 22 | 165 | 0.0 | 9.7 | 0.00 | 0.00 | 0.00 | 33 | 1012.4 |
| 20260503213030 | 23 | 278 | 8.0 | 9.7 | 0.00 | 0.00 | 0.00 | 31 | 1012.5 |
| 20260503212527 | 23 | 270 | 0.0 | 6.4 | 0.00 | 0.00 | 0.00 | 32 | 1012.4 |
| 20260503212024 | 22 | 331 | 4.8 | 6.4 | 0.00 | 0.00 | 0.00 | 34 | 1012.4 |
| 20260503211521 | 22 | 290 | 6.4 | 12.9 | 0.00 | 0.00 | 0.00 | 33 | 1012.5 |
| 20260503211017 | 22 | 252 | 8.0 | 11.3 | 0.00 | 0.00 | 0.00 | 33 | 1012.6 |
| 20260503210514 | 22 | 270 | 4.8 | 8.0 | 0.00 | 0.00 | 0.00 | 33 | 1012.7 |
| 20260503210010 | 22 | 305 | 6.4 | 8.0 | 0.00 | 0.00 | 0.00 | 33 | 1012.9 |
| 20260503205506 | 21 | 90 | 0.0 | 11.3 | 0.00 | 0.00 | 0.00 | 32 | 1012.9 |
| 20260503205003 | 22 | 248 | 4.8 | 11.3 | 0.00 | 0.00 | 0.00 | 33 | 1012.9 |
| 20260503204500 | 23 | 90 | 4.8 | 4.8 | 0.00 | 0.00 | 0.00 | 32 | 1013.0 |
| 20260503203956 | 22 | 240 | 0.0 | 4.8 | 0.00 | 0.00 | 0.00 | 33 | 1013.1 |
| 20260503203454 | 22 | 48 | 3.2 | 8.0 | 0.00 | 0.00 | 0.00 | 32 | 1013.2 |
| 20260503202950 | 22 | 342 | 3.2 | 9.7 | 0.00 | 0.00 | 0.00 | 34 | 1013.1 |
| 20260503202449 | 22 | 8 | 6.4 | 6.4 | 0.00 | 0.00 | 0.00 | 32 | 1013.2 |
| 20260503201947 | 22 | 270 | 9.7 | 11.3 | 0.00 | 0.00 | 0.00 | 33 | 1013.2 |
| 20260503201444 | 22 | 24 | 6.4 | 8.0 | 0.00 | 0.00 | 0.00 | 31 | 1013.5 |
| 20260503200941 | 22 | 106 | 1.6 | 4.8 | 0.00 | 0.00 | 0.00 | 32 | 1013.6 |
| 20260503200438 | 21 | 63 | 4.8 | 8.0 | 0.00 | 0.00 | 0.00 | 31 | 1013.5 |
| 20260503195934 | 21 | 270 | 0.0 | 4.8 | 0.00 | 0.00 | 0.00 | 31 | 1013.4 |
| 20260503195432 | 21 | 0 | 4.8 | 8.0 | 0.00 | 0.00 | 0.00 | 32 | 1013.8 |
| 20260503194928 | 21 | 297 | 8.0 | 8.0 | 0.00 | 0.00 | 0.00 | 34 | 1013.6 |
| 20260503194425 | 21 | 270 | 0.0 | 12.9 | 0.00 | 0.00 | 0.00 | 33 | 1013.8 |
| 20260503193920 | 21 | 345 | 0.0 | 4.8 | 0.00 | 0.00 | 0.00 | 35 | 1014.1 |
| 20260503193416 | 21 | 358 | 4.8 | 8.0 | 0.00 | 0.00 | 0.00 | 34 | 1014.0 |
| 20260503192912 | 21 | 83 | 6.4 | 6.4 | 0.00 | 0.00 | 0.00 | 35 | 1014.1 |
| 20260503192408 | 20 | 262 | 1.6 | 8.0 | 0.00 | 0.00 | 0.00 | 36 | 1014.1 |
| 20260503191904 | 20 | 254 | 0.0 | 4.8 | 0.00 | 0.00 | 0.00 | 38 | 1014.4 |
| 20260503191402 | 20 | 261 | 0.0 | 8.0 | 0.00 | 0.00 | 0.00 | 37 | 1014.5 |
| 20260503190858 | 20 | 22 | 3.2 | 11.3 | 0.00 | 0.00 | 0.00 | 39 | 1014.5 |
| 20260503190355 | 20 | 304 | 3.2 | 4.8 | 0.00 | 0.00 | 0.00 | 39 | 1014.5 |
| 20260503185852 | 20 | 340 | 4.8 | 8.0 | 0.00 | 0.00 | 0.00 | 40 | 1014.6 |
| 20260503185348 | 19 | 270 | 0.0 | 3.2 | 0.00 | 0.00 | 0.00 | 41 | 1014.7 |
| 20260503184848 | 18 | 297 | 4.8 | 6.4 | 0.00 | 0.00 | 0.00 | 40 | 1014.8 |
| 20260503184344 | 19 | 312 | 6.4 | 6.4 | 0.00 | 0.00 | 0.00 | 43 | 1014.8 |
| 20260503183840 | 19 | 99 | 8.0 | 9.7 | 0.00 | 0.00 | 0.00 | 46 | 1014.9 |
| 20260503183338 | 18 | 117 | 0.0 | 6.4 | 0.00 | 0.00 | 0.00 | 46 | 1015.0 |
| 20260503182835 | 18 | 274 | 4.8 | 8.0 | 0.00 | 0.00 | 0.00 | 48 | 1015.2 |
| 20260503182334 | 18 | 326 | 6.4 | 8.0 | 0.00 | 0.00 | 0.00 | 48 | 1015.4 |
| 20260503181831 | 17 | 315 | 4.8 | 9.7 | 0.00 | 0.00 | 0.00 | 50 | 1015.5 |
| 20260503181328 | 17 | 9 | 4.8 | 9.7 | 0.00 | 0.00 | 0.00 | 50 | 1015.4 |
| 20260503180824 | 16 | 192 | 3.2 | 8.0 | 0.00 | 0.00 | 0.00 | 50 | 1015.5 |
| 20260503180322 | 16 | 306 | 6.4 | 9.7 | 0.00 | 0.00 | 0.00 | 50 | 1015.7 |
| 20260503175818 | 17 | 307 | 6.4 | 9.7 | 0.00 | 0.00 | 0.00 | 50 | 1015.6 |
| 20260503175316 | 17 | 337 | 4.8 | 6.4 | 0.00 | 0.00 | 0.00 | 49 | 1015.9 |
| 20260503174812 | 16 | 0 | 1.6 | 3.2 | 0.00 | 0.00 | 0.00 | 51 | 1015.8 |
| 20260503174310 | 16 | 278 | 3.2 | 6.4 | 0.00 | 0.00 | 0.00 | 52 | 1015.9 |
| 20260503173806 | 16 | 336 | 11.3 | 11.3 | 0.00 | 0.00 | 0.00 | 51 | 1015.9 |
| 20260503173301 | 16 | 322 | 3.2 | 4.8 | 0.00 | 0.00 | 0.00 | 50 | 1016.2 |
| 20260503172758 | 16 | 347 | 8.0 | 8.0 | 0.00 | 0.00 | 0.00 | 53 | 1016.2 |
| 20260503172256 | 15 | 337 | 4.8 | 9.7 | 0.00 | 0.00 | 0.00 | 52 | 1016.5 |
| 20260503171752 | 15 | 320 | 4.8 | 9.7 | 0.00 | 0.00 | 0.00 | 53 | 1016.5 |
| 20260503171249 | 15 | 3 | 8.0 | 8.0 | 0.00 | 0.00 | 0.00 | 54 | 1016.1 |
| 20260503170746 | 15 | 357 | 3.2 | 9.7 | 0.00 | 0.00 | 0.00 | 54 | 1016.5 |
| 20260503170243 | 15 | 300 | 0.0 | 4.8 | 0.00 | 0.00 | 0.00 | 53 | 1016.6 |
| 20260503160205 | 12 | 294 | 0.0 | 6.4 | 0.00 | 0.00 | 0.00 | 59 | 1017.1 |
| 20260503150635 | 11 | 78 | 4.8 | 6.4 | 0.00 | 0.00 | 0.00 | 65 | 1017.4 |
| 20260503150131 | 10 | 346 | 1.6 | 6.4 | 0.00 | 0.00 | 0.00 | 67 | 1017.6 |